Probability
0 0 0 0 0 0 0 0 0 0 0 0 0 0 0 0 0 0 0 0 0 0 0 1 2 3 4 5 4 4 2 1 1 2 4 6 6 3 1 0 0 0 0 0 0 0 0 0 0
0 0 0 0 0 0 0 0 0 0 0 0 0 0 0 0 0 0 0 0 0 0 0 0 1 2 4 4 3 2 1 1 2 3 5 6 6 4 1 0 0 0 0 0 0 0 0 0 0
0 0 0 0 0 0 0 0 0 0 0 0 0 0 0 0 0 0 0 0 0 0 0 0 0 1 3 3 2 1 0 1 2 5 6 6 6 5 3 1 0 0 0 0 0 0 0 0 0
0 0 0 0 0 0 0 0 0 0 0 0 0 0 0 0 0 0 0 0 0 0 0 0 0 1 2 2 1 0 0 0 2 4 6 5 5 4 3 2 1 0 0 0 0 0 0 0 0
0 0 0 0 0 0 0 0 0 0 0 0 0 0 0 0 0 0 0 0 0 0 0 0 0 0 1 1 0 1 1 0 1 3 4 3 2 2 3 3 2 1 0 0 0 0 0 0 0
0 0 0 0 0 0 0 0 0 0 0 0 0 0 0 0 0 0 0 0 0 0 0 0 0 0 0 0 0 1 1 0 1 2 2 1 0 1 1 2 2 1 0 0 0 0 0 0 0
0 0 0 0 0 0 0 0 0 0 0 0 0 0 0 0 0 0 0 0 0 0 0 0 0 0 0 0 0 1 1 0 0 1 1 0 0 0 0 1 1 1 0 0 0 0 0 0 0
0 0 0 0 0 0 0 0 0 0 0 0 0 0 0 0 0 0 0 0 0 0 0 0 0 0 0 0 0 0 0 0 0 0 0 0 0 0 0 0 0 0 0 0 0 0 0 0 0
0 0 0 0 0 0 0 0 0 0 0 0 0 0 0 0 0 0 0 0 0 0 0 0 0 0 0 0 0 0 0 0 0 0 0 0 0 0 0 0 0 0 0 0 0 0 0 0 0
0 0 0 0 0 0 0 0 0 0 0 0 0 0 0 0 0 0 0 0 0 0 0 0 0 0 0 0 0 0 0 0 0 0 0 0 0 0 0 0 0 0 0 0 0 0 0 0 0
0 0 0 0 0 0 0 0 0 0 0 0 0 0 0 0 0 0 0 0 0 0 1 1 0 0 1 1 1 0 0 0 0 0 0 0 0 0 0 0 0 0 0 0 0 0 0 0 0
0 0 0 0 0 0 0 0 0 0 0 0 0 0 0 0 0 0 0 0 0 0 1 1 1 1 1 2 2 1 0 0 0 0 0 0 0 0 0 0 0 0 0 0 0 0 0 0 0
0 0 0 0 0 0 0 0 0 0 0 0 0 0 0 0 0 0 0 0 0 0 1 1 2 2 3 3 3 2 1 1 0 0 0 0 0 0 0 0 0 0 0 0 0 0 0 0 0
0 0 0 0 0 0 0 0 0 0 0 0 0 0 0 0 0 0 0 0 0 0 0 0 1 2 3 3 3 3 3 2 1 1 0 0 0 0 0 0 0 0 0 0 0 0 0 0 0
0 0 0 0 0 0 0 0 0 0 0 0 0 0 0 0 0 0 0 0 0 0 0 0 0 1 3 3 2 3 3 3 2 1 0 0 0 0 0 0 0 0 0 0 0 0 0 0 0
0 0 0 0 0 0 0 0 0 0 0 0 0 0 0 0 0 0 0 0 0 0 0 0 0 1 2 3 3 3 4 3 2 1 0 0 0 0 0 0 0 0 0 0 0 0 0 0 0
0 0 0 0 0 0 0 0 0 0 0 0 0 0 0 0 0 0 0 0 0 0 0 0 0 1 2 3 3 4 4 3 1 0 0 0 0 0 0 0 0 0 0 0 0 0 0 0 0
0 0 0 0 0 0 0 0 0 0 0 0 0 0 0 0 0 0 0 0 0 0 0 0 1 2 3 3 3 3 3 1 0 0 0 0 0 0 0 0 0 0 0 0 0 0 0 0 0
0 0 0 0 0 0 0 0 0 0 0 0 0 0 0 0 0 0 0 0 0 0 0 0 1 2 3 3 3 3 3 1 0 0 0 0 0 0 0 0 0 0 0 0 0 0 0 0 0
0 0 0 0 0 0 0 0 0 0 0 0 0 0 0 0 0 0 0 0 0 0 0 0 0 1 2 3 3 3 3 2 1 0 0 0 0 0 0 0 0 0 0 0 0 0 0 0 0
0 0 0 0 0 0 0 0 0 0 0 0 0 0 0 0 0 0 0 0 0 0 0 0 0 0 1 2 3 3 3 2 1 0 0 0 0 0 0 0 0 0 0 0 0 0 0 0 0
0 0 0 0 0 0 0 0 0 0 0 0 0 0 0 0 0 0 0 0 0 0 0 0 0 0 0 1 2 2 1 1 0 0 0 0 0 0 0 0 0 0 0 0 0 0 0 0 0
0 0 0 0 0 0 0 0 0 0 0 0 0 0 0 0 0 0 0 0 0 0 0 0 0 0 0 0 2 2 1 0 0 0 0 0 0 0 0 0 0 0 0 0 0 0 0 0 0
0 0 0 0 0 0 0 0 0 0 0 0 0 0 0 0 0 0 0 0 0 0 0 0 0 0 0 0 2 2 1 0 0 0 0 0 0 0 0 0 0 0 0 0 0 0 0 0 0
0 0 0 0 0 0 0 0 0 0 0 0 0 0 0 0 0 0 0 0 0 0 0 0 0 0 0 0 1 1 1 0 0 0 0 0 0 0 0 0 0 0 0 0 0 0 0 0 0
0 0 0 0 0 0 0 0 0 0 0 0 0 0 0 0 0 0 0 0 0 0 0 0 0 0 0 0 0 0 0 0 0 0 0 0 0 0 0 0 0 0 0 0 0 0 0 0 0
0 0 0 0 0 0 0 0 0 0 0 0 0 0 0 0 0 0 0 0 0 0 0 0 0 0 0 0 0 0 0 0 0 0 0 0 1 1 1 1 0 0 0 0 0 0 0 0 0
0 0 0 0 0 0 0 0 0 0 0 0 0 0 0 0 0 0 0 0 0 0 0 0 0 0 0 0 0 0 0 0 0 0 0 0 1 2 2 2 1 0 0 0 0 0 0 0 0
0 0 0 0 0 0 0 0 0 0 0 0 0 0 0 0 0 0 0 0 0 0 0 0 0 0 0 0 0 0 0 0 0 0 0 0 0 1 3 3 1 0 0 0 0 0 0 0 0
0 0 0 0 0 0 0 0 0 0 0 0 0 0 0 0 0 0 0 0 0 0 0 0 0 0 0 0 0 0 0 0 0 0 0 0 0 1 2 3 2 1 0 0 0 0 0 0 0
Wind_Speed
3 1 2 2 3 3 5 4 3 2 2 0 1 1 2 1 1 2 4 3 3 5 6 6 3 5 6 6 6 6 6 6 6 7 7 7 6 6 6 6 6 6 6 7 7 7 7 7 7
2 1 2 2 5 6 5 5 6 3 1 1 1 2 2 1 1 2 2 2 3 5 5 5 4 5 6 6 6 6 5 5 6 6 6 6 6 6 6 6 6 6 6 6 6 7 7 7 7
0 1 2 3 5 6 4 3 4 2 0 1 1 1 1 1 1 2 3 3 4 4 5 5 3 5 6 6 6 6 5 5 5 5 6 6 6 6 6 6 6 6 6 6 6 6 6 7 7
2 2 1 4 7 6 4 1 2 3 1 1 2 1 1 2 2 3 3 3 4 4 4 5 3 5 6 6 6 5 5 5 5 5 5 5 6 6 6 6 6 6 6 6 6 6 6 6 6
1 2 4 6 8 5 3 3 3 4 3 1 2 2 1 2 3 3 3 3 4 4 4 4 3 4 4 5 5 5 5 5 5 5 5 5 6 6 6 6 6 6 6 6 6 6 6 6 6
3 3 5 8 9 6 4 3 3 4 3 2 2 3 1 3 3 3 2 2 3 4 4 4 3 3 4 4 4 5 5 5 4 5 5 5 6 6 6 6 6 6 6 6 6 6 5 5 6
3 3 5 7 7 6 4 3 4 5 4 2 2 3 2 2 4 2 2 2 3 3 3 3 3 3 3 4 4 4 5 5 5 5 5 5 6 6 6 6 6 6 6 7 6 6 6 5 5
1 3 5 6 7 6 2 3 2 4 3 1 2 3 1 3 3 2 2 3 3 3 2 2 2 2 3 3 3 4 4 4 5 5 5 5 5 5 5 5 5 6 6 6 6 6 6 6 5
2 5 7 7 6 3 3 4 2 1 2 1 1 1 3 3 2 2 2 1 1 1 1 0 0 1 2 2 2 3 3 3 3 4 4 3 2 2 3 4 5 5 6 5 6 5 5 4 5
4 6 8 3 3 2 2 3 3 3 4 4 3 1 2 2 2 1 0 1 1 1 1 1 0 0 1 1 2 2 2 2 2 2 2 2 1 1 2 4 4 5 5 5 5 5 4 2 2
3 5 3 2 2 2 3 3 3 5 6 6 5 2 0 1 0 1 1 2 2 2 1 2 1 1 1 1 1 1 1 1 1 2 2 1 1 1 1 1 2 2 2 2 3 2 2 2 2
3 4 3 2 1 2 3 3 4 6 7 4 2 1 1 1 1 1 2 3 3 2 2 2 2 1 1 1 1 1 1 1 1 1 2 2 1 1 1 1 1 1 1 1 1 1 2 2 2
5 3 2 1 1 2 3 5 5 8 6 3 2 1 1 1 2 2 2 3 3 3 3 2 2 2 1 1 1 1 2 2 2 2 2 2 2 2 2 1 1 1 1 1 1 1 1 1 1
2 2 3 4 5 4 4 6 5 9 3 1 2 3 3 3 3 2 3 3 3 4 3 2 2 2 2 1 1 1 1 2 2 2 2 2 1 1 2 2 1 1 1 1 1 1 1 1 0
1 2 4 4 4 3 3 6 7 6 2 3 3 3 3 3 3 3 3 3 3 3 3 3 3 2 2 2 2 1 1 1 1 1 2 2 1 2 2 2 2 1 1 1 1 1 0 1 1
2 3 5 1 1 2 5 9 4 1 2 4 3 3 3 2 2 3 3 3 3 3 3 3 2 3 3 2 2 2 1 1 1 1 2 2 2 2 2 1 1 1 1 1 1 1 1 1 1
4 5 6 3 1 2 5 8 3 1 2 4 4 3 3 3 3 3 3 3 3 3 2 2 2 2 2 2 2 2 1 1 1 1 1 2 2 2 2 2 1 2 2 2 1 1 1 1 1
5 5 6 6 1 3 7 10 6 3 3 5 4 3 3 3 4 3 3 3 3 3 3 2 2 2 2 1 1 1 1 1 1 1 1 2 2 3 3 2 2 2 2 2 1 1 1 1 1
3 6 8 7 3 5 9 12 9 6 5 5 5 4 4 4 3 2 2 2 2 3 3 3 2 2 1 1 1 2 2 2 1 1 1 1 1 2 3 2 3 3 2 3 2 2 2 1 1
5 7 8 6 2 5 8 11 10 7 6 6 6 5 5 4 3 2 2 2 2 2 2 3 2 2 2 2 2 2 2 2 2 1 1 2 2 2 2 3 3 3 3 3 3 2 1 1 1
7 8 8 6 4 5 7 10 8 4 3 4 5 5 4 4 4 3 2 2 2 2 2 2 2 2 2 2 1 1 1 1 1 1 2 2 3 3 2 3 3 3 4 4 4 4 3 2 2
7 5 6 6 6 4 4 9 6 4 4 4 5 4 4 3 3 3 2 2 3 3 2 2 2 2 2 1 1 2 2 2 3 2 2 2 2 2 2 3 3 3 3 4 4 4 3 3 3
3 2 4 5 5 6 5 8 7 1 6 6 4 4 4 3 3 3 3 3 3 2 2 2 2 2 2 1 1 2 2 2 2 2 2 2 2 2 2 3 3 3 3 4 4 4 4 3 3
1 0 1 2 4 7 7 8 8 3 5 4 2 3 3 2 2 3 3 3 2 2 2 2 2 2 2 2 2 2 2 2 2 2 2 2 2 2 2 3 3 3 3 4 4 4 5 4 4
2 2 2 3 4 6 2 7 8 2 3 4 4 3 3 3 3 3 3 2 2 3 2 2 2 3 3 2 2 3 3 3 3 3 2 2 2 2 2 3 3 3 3 4 4 4 4 5 6
4 4 4 4 5 4 3 8 5 1 3 3 4 3 3 3 3 3 3 3 3 3 3 3 3 3 3 3 3 3 3 2 3 3 3 3 2 2 3 3 3 3 4 4 4 4 4 4 5
4 5 3 2 2 5 7 6 5 3 4 3 2 2 3 3 3 3 3 3 3 3 3 3 3 3 3 3 3 3 3 3 3 3 3 3 2 2 3 3 3 3 3 4 4 3 4 4 4
2 3 3 4 4 7 7 7 5 4 5 3 2 2 2 3 3 3 3 3 3 3 3 3 3 3 3 3 3 3 3 4 3 3 3 3 3 2 3 3 3 3 3 3 3 3 4 4 4
4 4 4 4 4 5 7 5 1 3 3 3 3 2 2 3 3 3 3 3 3 3 3 3 3 3 3 3 3 3 3 3 3 3 3 3 2 2 3 3 3 3 3 3 3 3 3 4 4
5 6 7 5 5 6 7 7 1 2 2 2 3 3 3 3 3 3 3 3 3 3 3 3 3 3 3 3 3 3 3 3 3 3 3 3 3 2 2 3 3 3 3 3 3 3 4 4 4
Wind_Direction
341 327 258 218 206 214 225 213 205 182 195 259 321 242 215 232 281 38 64 104 109 140 152 157 139 126 114 106 102 98 96 107 108 105 103 99 99 100 96 93 89 89 93 92 91 89 87 87 84
335 276 213 214 229 223 220 209 207 212 138 126 215 230 213 197 17 41 90 108 130 141 150 158 135 128 118 111 105 97 96 106 110 109 107 102 95 93 93 90 90 88 87 89 91 91 90 88 88
145 311 216 211 225 234 221 183 199 184 199 237 209 270 306 19 75 72 59 129 136 138 149 139 122 127 123 117 111 102 95 102 110 109 107 103 95 88 88 91 88 84 81 84 88 90 91 87 89
211 164 195 226 226 237 248 168 163 184 185 244 253 198 146 30 16 39 76 139 137 137 146 136 110 120 123 121 118 108 98 104 110 105 103 101 94 89 86 87 87 85 81 83 87 87 89 87 85
212 199 205 224 236 235 244 261 238 233 223 230 230 239 192 71 37 52 91 139 143 139 141 141 107 109 113 115 117 112 101 101 106 102 99 94 90 89 87 82 81 83 83 81 85 83 86 87 83
182 207 221 230 233 231 231 232 227 239 241 249 246 243 234 50 40 56 90 138 142 138 137 138 105 96 97 99 99 100 97 89 97 97 93 93 89 89 88 83 80 79 81 77 78 78 79 89 86
213 213 236 241 245 242 233 204 229 234 236 244 272 238 213 48 26 38 100 121 124 128 134 144 151 135 98 83 81 82 84 86 83 79 80 83 84 86 83 81 82 79 79 76 74 75 72 80 86
248 214 227 232 240 247 202 190 232 244 247 285 256 244 270 24 29 60 92 104 101 98 113 138 158 161 162 144 89 81 83 86 85 80 75 75 78 86 81 83 81 82 81 77 73 76 76 75 80
224 223 232 232 233 239 186 207 206 251 228 222 219 312 9 43 67 89 86 90 95 75 69 73 145 173 171 167 127 117 101 89 97 101 86 92 114 117 108 87 78 81 81 81 75 74 76 78 86
213 229 238 248 245 225 203 234 231 217 234 241 240 268 34 70 97 116 147 266 267 276 303 332 291 274 208 174 170 177 166 148 160 153 142 147 132 119 107 86 79 79 79 86 79 74 86 76 87
211 234 247 247 261 249 241 252 262 248 252 250 250 247 70 80 93 238 267 276 278 278 305 324 313 287 259 218 193 192 183 174 181 166 153 135 121 135 125 121 111 106 102 101 92 81 61 51 44
212 244 255 265 279 253 257 261 258 256 267 312 288 250 131 187 255 272 282 295 303 305 307 321 320 308 288 279 228 199 189 187 183 183 173 160 143 156 156 147 150 139 129 115 96 80 61 53 50
219 238 259 272 287 276 263 259 272 272 282 299 307 263 230 241 268 288 294 302 306 301 300 309 309 306 284 266 273 227 203 202 195 186 180 177 165 174 179 172 158 142 132 139 133 114 104 89 65
221 242 266 274 262 255 256 272 264 269 273 259 252 256 264 271 283 301 308 306 307 302 303 301 285 280 278 252 250 256 235 209 203 194 185 190 183 177 181 169 161 149 140 137 154 147 160 144 103
183 268 273 261 253 242 253 265 243 263 244 257 266 272 285 294 312 320 315 309 313 315 318 319 301 281 261 252 244 239 240 225 210 206 194 187 191 184 184 181 173 161 155 147 138 130 146 133 159
223 242 256 239 245 232 236 259 260 312 241 254 268 279 285 297 308 317 324 319 316 314 317 324 331 311 285 265 254 245 227 220 215 212 196 195 195 190 186 188 182 170 168 172 168 168 183 190 222
211 244 257 263 224 234 230 260 303 11 263 271 274 275 281 294 307 310 317 326 328 316 312 316 318 312 304 284 257 250 231 217 217 216 209 204 200 198 193 196 182 178 182 184 183 195 215 228 250
237 248 257 259 262 249 247 261 282 292 287 282 283 281 279 283 290 304 318 329 333 332 322 313 320 324 314 294 262 240 234 233 231 239 260 236 210 203 196 189 182 184 189 188 192 196 212 251 262
254 249 263 273 281 266 261 270 278 281 274 275 278 277 271 273 294 328 338 345 345 347 344 332 319 326 323 279 258 247 242 231 230 244 255 247 237 221 204 192 187 194 201 200 194 191 189 220 251
238 251 267 280 260 259 275 275 274 269 263 266 270 271 276 283 296 321 333 353 347 341 337 332 314 302 290 282 267 267 257 239 237 247 252 254 244 230 216 209 203 200 203 200 196 189 191 200 221
242 245 260 273 296 253 278 270 249 237 252 269 267 269 273 276 285 294 301 307 316 321 319 325 330 319 303 290 276 302 271 260 251 261 253 253 249 235 227 218 216 209 208 206 202 203 202 202 213
252 251 255 261 266 267 273 282 267 249 258 264 264 265 270 276 277 287 286 285 289 300 312 316 323 326 324 303 265 241 243 246 245 246 244 247 243 242 236 226 217 213 219 215 210 213 218 209 211
257 280 247 249 247 266 241 260 275 223 267 269 263 258 263 274 279 286 288 288 292 303 312 318 328 329 323 305 283 259 269 277 266 245 238 240 239 239 241 238 224 216 221 222 216 214 218 217 218
170 204 189 215 230 254 241 240 273 226 260 274 279 273 278 296 298 298 307 315 313 320 325 329 329 330 327 313 296 278 275 290 292 265 248 245 246 240 245 246 237 228 226 224 222 221 219 220 223
192 210 243 231 223 244 191 235 261 263 264 276 285 297 306 317 312 314 319 316 319 325 329 329 331 329 327 314 298 287 279 275 272 263 249 244 244 254 256 249 240 234 233 230 224 222 225 222 223
205 219 226 253 257 272 208 241 256 272 283 284 285 295 318 320 321 313 311 306 304 309 319 325 316 312 316 309 298 287 280 273 273 269 264 251 250 248 252 246 246 239 231 227 223 222 225 227 226
186 211 251 255 289 271 251 256 263 249 261 260 277 303 316 319 315 312 314 311 309 305 309 307 310 309 304 299 293 287 281 276 278 277 265 258 261 263 254 244 244 244 236 228 222 223 221 225 227
245 173 179 207 240 259 264 256 257 246 252 251 264 297 319 322 318 316 316 319 317 310 307 309 305 305 312 307 296 294 284 278 278 274 268 268 266 263 255 253 249 246 242 234 228 230 224 225 229
181 188 207 209 236 252 270 265 205 243 241 249 260 288 310 316 315 318 321 318 317 315 310 309 307 307 308 310 304 300 291 285 279 274 271 269 267 259 251 250 248 245 239 236 233 231 233 229 232
225 216 203 217 224 230 259 268 92 287 286 266 285 307 317 318 316 320 318 319 318 308 306 305 305 302 301 302 298 294 301 294 280 276 275 273 266 259 253 250 246 243 238 232 232 230 234 234 232